When you browse on this site, cookies collect data to enhance your experience and personalize the content and advertising you see.
Visit our Privacy Policy to learn more. By continuing to use the site, you agree to this use of cookies and data.
  • In Austria
  • List of Countries
  • For 7 days
  • Water Temperature
  • Satellite Maps
  • Weather Map
  • News
  • Weather Widgets
  • user-avatar
    Login

    Hourly Weather Bukavu

    Today, 19 November, Monday

    Time Temperature Precipitation Wind Pressure Humidity
    00:00 +19°C° 0 mm 0 mps 688 mmHg 86%
    01:00 +19°C° 0 mm 0 mps 688 mmHg 88%
    02:00 +19°C° 0 mm 0 mps 688 mmHg 90%
    03:00 +18°C° 0 mm 0 mps 688 mmHg 91%
    04:00 +18°C° 0 mm 0 mps 688 mmHg 93%
    05:00 +18°C° 0 mm 0 mps 688 mmHg 94%
    06:00 +21°C° 0 mm 1 mps 688 mmHg 90%
    07:00 +23°C° 0 mm 1 mps 689 mmHg 85%
    08:00 +24°C° 0 mm 1 mps 689 mmHg 81%
    09:00 +26°C° 0 mm 1 mps 689 mmHg 70%
    10:00 +29°C° 0 mm 1 mps 689 mmHg 59%
    11:00 +32°C° 0 mm 1 mps 690 mmHg 48%
    12:00 +32°C° 0 mm 1 mps 689 mmHg 46%
    13:00 +33°C° 0 mm 1 mps 688 mmHg 44%
    14:00 +34°C° 0 mm 1 mps 688 mmHg 43%
    15:00 +32°C° 0 mm 1 mps 687 mmHg 49%
    16:00 +31°C° 0 mm 1 mps 687 mmHg 56%
    17:00 +30°C° 0 mm 1 mps 686 mmHg 62%
    18:00 +28°C° 0 mm 1 mps 686 mmHg 68%
    19:00 +26°C° 0 mm 1 mps 687 mmHg 73%
    20:00 +25°C° 0 mm 1 mps 687 mmHg 78%
    21:00 +24°C° 0 mm 1 mps 687 mmHg 81%
    22:00 +23°C° 0 mm 1 mps 687 mmHg 83%
    23:00 +23°C° 0 mm 1 mps 687 mmHg 86%

    Tomorrow, 20 November, Tuesday

    Time Temperature Precipitation Wind Pressure Humidity
    00:00 +23°C° 0 mm 1 mps 687 mmHg 86%
    01:00 +22°C° 0 mm 1 mps 687 mmHg 87%
    02:00 +22°C° 0 mm 1 mps 687 mmHg 88%
    03:00 +22°C° 0 mm 1 mps 687 mmHg 89%
    04:00 +21°C° 0 mm 1 mps 687 mmHg 90%
    05:00 +21°C° 0 mm 1 mps 686 mmHg 91%
    06:00 +23°C° 0 mm 1 mps 687 mmHg 84%
    07:00 +24°C° 0 mm 1 mps 688 mmHg 77%
    08:00 +26°C° 0 mm 1 mps 689 mmHg 70%
    09:00 +29°C° 0 mm 1 mps 689 mmHg 59%
    10:00 +32°C° 0 mm 1 mps 689 mmHg 49%
    11:00 +34°C° 0 mm 1 mps 689 mmHg 39%
    12:00 +34°C° 0 mm 1 mps 689 mmHg 43%
    13:00 +33°C° 0 mm 1 mps 688 mmHg 46%
    14:00 +32°C° 0 mm 1 mps 687 mmHg 50%
    15:00 +31°C° 0 mm 1 mps 686 mmHg 54%
    16:00 +29°C° 0 mm 0 mps 686 mmHg 58%
    17:00 +28°C° 0 mm 0 mps 686 mmHg 62%
    18:00 +26°C° 0.1 mm 0 mps 686 mmHg 67%
    19:00 +26°C° 0.1 mm 1 mps 687 mmHg 73%
    20:00 +25°C° 0.1 mm 1 mps 687 mmHg 78%
    21:00 +24°C° 0.5 mm 1 mps 687 mmHg 84%
    22:00 +23°C° 0.5 mm 1 mps 687 mmHg 89%
    23:00 +22°C° 0.5 mm 1 mps 688 mmHg 95%

    Day after tomorrow, 21 November, Wednesday

    Time Temperature Precipitation Wind Pressure Humidity
    00:00 +22°C° 0.4 mm 1 mps 687 mmHg 96%
    01:00 +20°C° 0.4 mm 0 mps 687 mmHg 97%
    02:00 +19°C° 0.4 mm 0 mps 687 mmHg 98%
    03:00 +19°C° 0.4 mm 0 mps 687 mmHg 97%
    04:00 +21°C° 0.4 mm 1 mps 687 mmHg 97%
    05:00 +21°C° 0.4 mm 1 mps 687 mmHg 96%
    06:00 +22°C° 0.1 mm 1 mps 687 mmHg 94%
    07:00 +23°C° 0.1 mm 1 mps 688 mmHg 91%
    08:00 +24°C° 0.1 mm 1 mps 689 mmHg 89%
    09:00 +25°C° 0 mm 1 mps 689 mmHg 82%
    10:00 +27°C° 0 mm 1 mps 689 mmHg 75%
    11:00 +29°C° 0 mm 1 mps 689 mmHg 68%
    12:00 +28°C° 0 mm 0 mps 688 mmHg 62%
    13:00 +29°C° 0 mm 0 mps 688 mmHg 56%
    14:00 +30°C° 0 mm 0 mps 687 mmHg 50%
    15:00 +29°C° 0 mm 0 mps 687 mmHg 55%
    16:00 +28°C° 0 mm 0 mps 686 mmHg 60%
    17:00 +27°C° 0 mm 0 mps 686 mmHg 65%
    18:00 +25°C° 0.3 mm 0 mps 686 mmHg 72%
    19:00 +23°C° 0.3 mm 0 mps 687 mmHg 79%
    20:00 +22°C° 0.3 mm 0 mps 687 mmHg 86%
    21:00 +21°C° 0.1 mm 0 mps 688 mmHg 88%
    22:00 +21°C° 0.1 mm 0 mps 688 mmHg 89%
    23:00 +20°C° 0.1 mm 0 mps 688 mmHg 91%

    22 November, Thursday

    Time Temperature Precipitation Wind Pressure Humidity
    00:00 +20°C° 0 mm 0 mps 687 mmHg 93%
    01:00 +19°C° 0 mm 0 mps 687 mmHg 95%
    02:00 +21°C° 0 mm 1 mps 686 mmHg 97%
    03:00 +21°C° 0 mm 1 mps 687 mmHg 97%
    04:00 +21°C° 0 mm 1 mps 687 mmHg 98%
    05:00 +21°C° 0 mm 1 mps 687 mmHg 98%
    06:00 +22°C° 0 mm 1 mps 688 mmHg 93%
    07:00 +23°C° 0 mm 1 mps 689 mmHg 89%
    08:00 +25°C° 0 mm 1 mps 689 mmHg 84%
    09:00 +26°C° 0.5 mm 1 mps 689 mmHg 80%
    10:00 +28°C° 0.5 mm 1 mps 689 mmHg 76%
    11:00 +30°C° 0.5 mm 1 mps 689 mmHg 72%
    12:00 +31°C° 0.2 mm 1 mps 688 mmHg 62%
    13:00 +33°C° 0.2 mm 1 mps 688 mmHg 51%
    14:00 +34°C° 0.2 mm 1 mps 687 mmHg 40%
    15:00 +33°C° 0 mm 1 mps 687 mmHg 46%
    16:00 +29°C° 0 mm 0 mps 687 mmHg 53%
    17:00 +28°C° 0 mm 0 mps 686 mmHg 59%
    18:00 +26°C° 0 mm 0 mps 687 mmHg 64%
    19:00 +24°C° 0 mm 0 mps 687 mmHg 68%
    20:00 +23°C° 0 mm 0 mps 687 mmHg 73%
    21:00 +24°C° 0 mm 1 mps 688 mmHg 77%
    22:00 +23°C° 0 mm 1 mps 688 mmHg 81%
    23:00 +22°C° 0 mm 1 mps 688 mmHg 85%

    23 November, Friday

    Time Temperature Precipitation Wind Pressure Humidity
    00:00 +22°C° 0 mm 1 mps 688 mmHg 89%
    01:00 +22°C° 0 mm 1 mps 687 mmHg 93%
    02:00 +22°C° 0 mm 1 mps 687 mmHg 96%
    03:00 +21°C° 0 mm 1 mps 687 mmHg 97%
    04:00 +19°C° 0 mm 0 mps 688 mmHg 98%
    05:00 +19°C° 0 mm 0 mps 688 mmHg 99%
    06:00 +20°C° 0 mm 0 mps 688 mmHg 93%
    07:00 +22°C° 0 mm 0 mps 689 mmHg 87%
    08:00 +25°C° 0 mm 1 mps 690 mmHg 81%
    09:00 +27°C° 0 mm 1 mps 690 mmHg 72%
    10:00 +29°C° 0 mm 1 mps 690 mmHg 62%
    11:00 +32°C° 0 mm 1 mps 690 mmHg 52%
    12:00 +32°C° 0 mm 1 mps 689 mmHg 49%
    13:00 +33°C° 0 mm 1 mps 688 mmHg 46%
    14:00 +31°C° 0 mm 0 mps 687 mmHg 43%
    15:00 +30°C° 0 mm 0 mps 687 mmHg 49%
    16:00 +29°C° 0 mm 0 mps 687 mmHg 56%
    17:00 +27°C° 0 mm 0 mps 687 mmHg 62%
    18:00 +26°C° 0 mm 0 mps 687 mmHg 66%
    19:00 +24°C° 0 mm 0 mps 687 mmHg 71%
    20:00 +22°C° 0 mm 0 mps 688 mmHg 75%
    21:00 +22°C° 0 mm 0 mps 687 mmHg 76%
    22:00 +21°C° 0 mm 0 mps 687 mmHg 78%
    23:00 +21°C° 0 mm 0 mps 687 mmHg 80%

    24 November, Saturday

    Time Temperature Precipitation Wind Pressure Humidity
    00:00 +20°C° 0 mm 0 mps 687 mmHg 81%
    01:00 +20°C° 0 mm 0 mps 686 mmHg 83%
    02:00 +19°C° 0 mm 0 mps 686 mmHg 85%
    03:00 +19°C° 0 mm 0 mps 686 mmHg 86%
    04:00 +19°C° 0 mm 0 mps 686 mmHg 87%
    05:00 +18°C° 0 mm 0 mps 687 mmHg 88%
    06:00 +22°C° 0 mm 1 mps 688 mmHg 80%
    07:00 +25°C° 0 mm 1 mps 689 mmHg 71%
    08:00 +27°C° 0 mm 1 mps 690 mmHg 62%
    09:00 +30°C° 0 mm 1 mps 690 mmHg 53%
    10:00 +32°C° 0 mm 1 mps 690 mmHg 44%
    11:00 +35°C° 0 mm 1 mps 690 mmHg 35%
    12:00 +34°C° 0 mm 1 mps 689 mmHg 37%
    13:00 +31°C° 0 mm 0 mps 688 mmHg 40%
    14:00 +31°C° 0 mm 0 mps 687 mmHg 42%
    15:00 +30°C° 0 mm 0 mps 686 mmHg 47%
    16:00 +29°C° 0 mm 0 mps 686 mmHg 52%
    17:00 +28°C° 0 mm 0 mps 686 mmHg 56%
    18:00 +26°C° 0 mm 0 mps 687 mmHg 59%
    19:00 +25°C° 0 mm 0 mps 687 mmHg 62%
    20:00 +23°C° 0 mm 0 mps 687 mmHg 65%
    21:00 +23°C° 0 mm 0 mps 687 mmHg 66%
    22:00 +22°C° 0 mm 0 mps 687 mmHg 68%
    23:00 +21°C° 0 mm 0 mps 687 mmHg 69%
    Show more